Dewpoint
74 74 73 73 73 72 72 72 71 72 71 71 72 71 71 71 71 71 70 70 71 68 66 65 65 65 68 68 66 68 67 67 66 68 65 67 66 65 65 64 63 66
74 74 74 73 73 73 73 72 71 71 72 72 71 72 71 71 71 71 70 70 71 66 67 66 66 65 67 68 67 68 67 67 66 68 66 66 65 64 64 64 64 65
74 74 73 73 73 73 72 73 72 72 72 72 71 72 71 72 71 71 70 70 68 66 66 67 67 67 67 67 67 68 67 66 67 66 65 65 66 66 66 65 64 66
74 74 73 73 74 73 73 72 73 72 72 72 72 72 71 71 72 70 69 71 67 67 66 66 67 67 68 67 67 66 67 67 66 66 65 66 65 64 64 65 65 64
74 73 73 73 73 74 73 73 73 72 72 72 72 72 72 70 71 70 69 69 67 67 66 66 67 67 68 68 67 66 66 67 67 67 66 66 65 65 64 66 65 64
74 74 73 73 73 73 73 73 72 72 72 72 72 72 71 70 69 70 69 68 66 67 66 66 66 67 67 68 67 66 67 66 66 66 67 66 65 65 66 66 66 65
74 73 73 73 73 73 73 73 73 72 72 71 72 72 71 70 69 68 69 68 66 67 66 66 66 66 67 67 68 66 66 66 66 66 65 67 66 65 65 65 65 65
73 73 73 73 72 72 72 72 72 72 72 72 71 71 71 70 69 68 69 68 66 66 66 66 66 66 66 66 67 67 66 67 66 65 65 66 66 65 65 65 65 65
74 73 74 73 72 72 72 72 72 72 72 71 72 71 71 70 69 68 68 67 67 66 66 66 66 66 66 66 66 67 66 66 66 65 65 65 66 65 65 65 65 65
73 74 73 73 72 72 72 72 72 72 72 72 72 71 71 70 70 69 68 68 67 67 66 66 66 66 66 66 66 66 66 66 66 66 65 65 65 65 65 65 65 65
73 73 73 73 73 72 72 72 72 72 72 72 72 71 71 70 70 70 68 68 67 67 66 66 66 66 66 66 66 66 66 66 66 66 66 65 65 65 67 65 65 65
73 73 73 73 73 72 72 71 71 72 72 72 72 71 71 71 70 70 69 68 67 67 67 66 66 66 66 66 66 66 66 66 66 66 66 66 65 65 65 65 64 65
73 73 73 73 73 72 72 72 71 71 72 72 72 71 71 70 70 70 70 69 68 67 67 66 66 66 66 66 67 67 66 66 66 66 66 66 66 65 65 65 64 65
73 73 73 73 73 72 72 72 71 71 72 72 72 72 71 71 70 70 70 69 69 68 67 67 67 66 66 66 66 67 67 66 66 66 66 66 66 65 65 65 65 65
73 73 73 73 73 73 72 72 71 71 71 72 73 72 72 71 71 70 70 69 69 68 67 67 67 67 67 66 66 67 66 67 67 66 66 65 65 65 65 65 64 64
73 73 73 74 74 73 73 72 72 71 71 72 73 72 72 71 71 71 70 69 69 68 68 67 67 68 66 63 64 66 66 67 67 66 65 64 64 64 64 64 64 64
73 73 73 73 74 73 73 73 72 72 72 72 73 73 72 72 72 71 70 69 69 68 67 67 67 67 63 62 62 64 66 66 66 66 65 64 63 64 63 64 64 64
73 73 73 73 73 74 73 73 73 73 72 73 73 73 72 72 72 71 70 70 69 68 68 67 67 64 61 61 62 62 64 66 66 65 65 63 63 63 64 64 64 66
74 73 73 73 73 74 74 74 73 73 73 73 73 73 73 72 72 71 71 70 69 68 67 67 67 63 60 60 61 61 62 65 65 65 64 63 63 63 64 64 66 65
74 74 74 73 74 74 74 74 74 73 74 74 74 74 73 72 72 72 71 70 69 68 68 67 67 61 59 59 60 60 61 64 65 65 64 63 64 64 65 66 66 64
74 74 74 74 74 74 75 75 74 74 74 74 74 74 73 73 72 72 71 70 69 68 67 67 67 60 58 58 58 58 60 63 65 65 64 63 64 64 65 64 65 66
75 75 75 75 75 75 75 75 75 75 74 74 73 74 74 73 73 72 71 69 69 68 67 67 67 59 58 58 57 58 59 64 64 64 64 64 65 65 65 64 63 64
75 75 76 75 75 75 75 75 75 74 74 73 73 73 73 72 71 70 69 69 68 68 67 67 65 59 57 56 57 57 59 64 64 64 64 64 64 63 63 63 63 64
76 76 76 75 75 75 74 74 74 74 74 73 72 72 72 72 70 69 68 68 67 67 66 65 64 58 55 55 56 56 60 65 64 64 62 62 62 63 63 62 62 66
76 76 76 75 75 75 74 74 74 74 73 72 71 71 70 70 69 68 68 67 67 66 66 64 64 59 53 54 55 55 60 64 63 62 61 60 61 61 62 63 63 66
76 76 75 75 74 74 74 74 73 73 73 72 71 70 68 68 67 67 66 65 65 64 64 64 64 61 58 53 54 54 57 64 63 61 60 59 60 60 61 62 64 66